sat.trackr.live / text

‹ back to catalog

SITRO-AIS 40

NORAD 61776 · 2024-199AT

PAYLOAD ACTIVE UNKNOWN

§ Identity

Operator
Country
CIS
Launch date
2024-11-04
Launch site
VOSTO
Launch vehicle
Mass (kg)
RCS (m²)

External: N2YO · Heavens-Above · Gunter

§ Orbital elements

Epoch: 2026-05-25T03:16:58.674144Z

Period
92.42 min
Inclination
97.2933°
Eccentricity
0.0006951
Mean motion
15.58161721 rev/d
Perigee alt
388.3 km
Apogee alt
397.7 km
Semi-major
6,771.1 km
B*
6.9432e-4
RAAN
21.1186°
Arg perigee
34.4067°
Mean anomaly
325.7638°
Rev number
13,403

§ Raw data

SITRO-AIS 401 61776U 24199AT  26145.13679021  .00052526  00000+0  69432-3 0  99952 61776  97.2933  21.1186 0006951  34.4067 325.7638 15.58161721134038

JSON: /api/v1/satellites/61776 · /tle

For live sub-satellite position, see the globe view (requires WebGL).

§ Visibility from observer

Set your observer location to see the next 7 days of passes ≥ 10°. The values pass through the URL so the page stays shareable.

No JS? Fill the form by hand. The geolocation button needs JavaScript.

§ Radio — SatNOGS DB

ModeDescriptionDownlinkUplink
GMSK USP Mode U - GMSK2k4 - USP 401.085 MHz

1 transmitter · refreshed weekly from db.satnogs.org